Погода в Нестерове

Россия / Республика Бурятия     52°21′58″N   107°52′53″E
темп.,
°C
ветер,
м/с
пор.,
м/с
влажн.,
%
обл.,
%
осадки,
мм/ч
давл.,
гПа
погр.,
м
25 февраля, чт
чт2523:00−18юв128818 0.0 102820
02:00−17юв129158 0.0 102720
05:00−17юв229397 0.0 102527
08:00−18юв129498 0.0 102520
11:00−11юз128146 0.0 1024316
14:00−7юз227547 0.0 1020431
17:00−9юв1286100 0.0 1019217
20:00−12вюв3388100 0.0 101885
26 февраля, пт
пт2623:00−11вюв3488100 0.0 1014145
02:00−12вюв2392100 0.1 101365
05:00−14ююз1192100 0.0 101520
08:00−14з2498100 0.1 1016191
11:00−12з2391100 0.4 1017412
14:00−11зюз2489100 0.6 1016555
17:00−12зюз3593100 0.4 1017502
20:00−15юз2697100 0.6 1019272
27 февраля, сб
сб2723:00−16з2398100 0.3 1021142
02:00−17зсз4997100 1.0 1023772
05:00−20сз4119898 0.3 1027657
08:00−25сз239763 0.4 103268
11:00−19сз497891 0.0 10331281
14:00−17сз586688 0.0 10341751
17:00−19сз4775100 0.1 10351324
20:00−26зюз0194100 0.1 103820
28 февраля, вс
вс2823:00−26ююз119559 0.0 104019
02:00−26ююз1110079 0.0 104019
05:00−28юв019994 0.0 104119
08:00−27в118948 0.0 104219
11:00−18з11656 0.0 1041425
14:00−16зюз346746 0.0 10391189
17:00−17зюз257486 0.0 10381032
20:00−23ю129163 0.0 104020
1 марта, пн
пн123:00−23ю128953 0.0 104120
02:00−24ю119460 0.0 104120
05:00−23зюз0090100 0.0 104120
08:00−23юз019499 0.0 104120
11:00−17з228392 0.0 1039409
14:00−15з247189 0.1 10361085
17:00−15зюз247798 0.1 1033763
20:00−21ююв228958 0.1 103320